AGJ920 MMUN-MHTG

Flight info

Callsign AGJ920
Flight time 1h 13m
Altitude 310
Route BOTO2D CZM BZE SAP LEPAX1
Aircraft A318/M-SDE3FG/L

Departure

Time 2026-04-30 07:50
Airport Cancún International Airport (MMUN)

Arrival

Time 2026-04-30 09:03
Airport Toncontín Airport (MHTG)
Time Latitude Longitude Altitude Speed Heading
2026-04-30 07:32 21.03765 -86.86653 29 ft 0 kts 304°
2026-04-30 07:40 21.03759 -86.86643 29 ft 2 kts 304°
2026-04-30 07:40 21.03750 -86.86628 27 ft 2 kts 304°
2026-04-30 07:41 21.03738 -86.86617 28 ft 2 kts 359°
2026-04-30 07:41 21.03728 -86.86622 27 ft 0 kts 41°
2026-04-30 07:45 21.03737 -86.86602 28 ft 5 kts 68°
2026-04-30 07:45 21.03762 -86.86554 28 ft 9 kts 47°
2026-04-30 07:45 21.03804 -86.86518 29 ft 1 kts 34°
2026-04-30 07:46 21.03815 -86.86519 29 ft 3 kts 326°
2026-04-30 07:46 21.03777 -86.86558 29 ft 16 kts 204°
2026-04-30 07:46 21.03675 -86.86617 29 ft 17 kts 210°
2026-04-30 07:46 21.03577 -86.86610 29 ft 14 kts 127°
2026-04-30 07:47 21.03600 -86.86526 29 ft 14 kts 34°
2026-04-30 07:47 21.03679 -86.86470 35 ft 14 kts 34°
2026-04-30 07:47 21.03755 -86.86416 43 ft 12 kts 33°
2026-04-30 07:47 21.03825 -86.86367 45 ft 12 kts 33°
2026-04-30 07:48 21.03904 -86.86309 51 ft 16 kts 34°
2026-04-30 07:48 21.03992 -86.86249 47 ft 15 kts 32°
2026-04-30 07:48 21.04032 -86.86168 43 ft 11 kts 107°
2026-04-30 07:48 21.03991 -86.86098 38 ft 12 kts 123°
2026-04-30 07:49 21.03939 -86.86010 29 ft 16 kts 117°
2026-04-30 07:49 21.03963 -86.85916 24 ft 12 kts 21°
2026-04-30 07:49 21.04042 -86.85917 27 ft 16 kts 357°
2026-04-30 07:49 21.04129 -86.85992 28 ft 23 kts 303°
2026-04-30 07:50 21.04313 -86.86287 30 ft 81 kts 303°
2026-04-30 07:50 21.04762 -86.87005 31 ft 149 kts 304°
2026-04-30 07:50 21.05443 -86.88068 341 ft 187 kts 305°
2026-04-30 07:50 21.06135 -86.89198 1453 ft 174 kts 300°
2026-04-30 07:51 21.06764 -86.90373 2070 ft 193 kts 300°
2026-04-30 07:51 21.07532 -86.91666 2454 ft 219 kts 303°
2026-04-30 07:51 21.08434 -86.93117 2715 ft 251 kts 303°
2026-04-30 07:51 21.09448 -86.94778 3148 ft 279 kts 303°
2026-04-30 07:52 21.10479 -86.96551 4164 ft 279 kts 296°
2026-04-30 07:52 21.10927 -86.98542 5192 ft 277 kts 264°
2026-04-30 07:52 21.10283 -87.00441 6084 ft 277 kts 230°
2026-04-30 07:52 21.08773 -87.01712 6915 ft 277 kts 199°
2026-04-30 07:53 21.06897 -87.02089 7654 ft 282 kts 183°
2026-04-30 07:53 21.04911 -87.02269 8426 ft 288 kts 180°
2026-04-30 07:53 21.02891 -87.02277 9221 ft 292 kts 174°
2026-04-30 07:53 21.00849 -87.02059 9974 ft 297 kts 168°
2026-04-30 07:54 20.98817 -87.01585 10685 ft 300 kts 161°
2026-04-30 07:54 20.96801 -87.00823 11110 ft 316 kts 154°
2026-04-30 07:54 20.94801 -86.99712 11392 ft 334 kts 146°
2026-04-30 07:54 20.92881 -86.98224 11625 ft 353 kts 137°
2026-04-30 07:55 20.91117 -86.96328 11974 ft 365 kts 128°
2026-04-30 07:55 20.89636 -86.94104 12827 ft 362 kts 119°
2026-04-30 07:55 20.88529 -86.91666 13442 ft 367 kts 109°
2026-04-30 07:55 20.87822 -86.89056 14056 ft 369 kts 99°
2026-04-30 07:56 20.87531 -86.86319 14647 ft 371 kts 90°
2026-04-30 07:56 20.87682 -86.83575 15207 ft 373 kts 80°
2026-04-30 07:56 20.88280 -86.80854 15803 ft 375 kts 71°
2026-04-30 07:56 20.88990 -86.78165 16330 ft 381 kts 79°
2026-04-30 07:57 20.88971 -86.75308 16912 ft 387 kts 97°
2026-04-30 07:57 20.88099 -86.72582 17440 ft 396 kts 116°
2026-04-30 07:57 20.86407 -86.70231 17966 ft 403 kts 133°
2026-04-30 07:57 20.84359 -86.68190 18423 ft 408 kts 136°
2026-04-30 07:58 20.82133 -86.66231 18867 ft 414 kts 146°
2026-04-30 07:58 20.79505 -86.65016 19323 ft 420 kts 165°
2026-04-30 07:58 20.76572 -86.64732 19732 ft 426 kts 184°
2026-04-30 07:58 20.73677 -86.65471 20148 ft 429 kts 204°
2026-04-30 07:59 20.71199 -86.67124 20543 ft 431 kts 223°
2026-04-30 07:59 20.69104 -86.69426 20953 ft 433 kts 229°
2026-04-30 07:59 20.67103 -86.71851 21337 ft 436 kts 231°
2026-04-30 08:00 20.63042 -86.76713 22154 ft 442 kts 229°
2026-04-30 08:00 20.60948 -86.79140 22552 ft 445 kts 230°
2026-04-30 08:00 20.58888 -86.81576 22924 ft 448 kts 230°
2026-04-30 08:00 20.56807 -86.84063 23295 ft 451 kts 230°
2026-04-30 08:01 20.54692 -86.86561 23649 ft 454 kts 230°
2026-04-30 08:01 20.52557 -86.89060 23936 ft 456 kts 230°
2026-04-30 08:01 20.50166 -86.91324 24254 ft 462 kts 214°
2026-04-30 08:01 20.47342 -86.92892 24570 ft 466 kts 206°
2026-04-30 08:02 20.41348 -86.95706 25135 ft 471 kts 205°
2026-04-30 08:02 20.38345 -86.97146 25417 ft 474 kts 206°
2026-04-30 08:03 20.32315 -87.00090 25984 ft 478 kts 205°
2026-04-30 08:03 20.26232 -87.02983 26507 ft 483 kts 206°
2026-04-30 08:03 20.23170 -87.04467 26790 ft 485 kts 206°
2026-04-30 08:04 20.20082 -87.05956 27046 ft 487 kts 206°
2026-04-30 08:04 20.16967 -87.07443 27319 ft 489 kts 205°
2026-04-30 08:04 20.13856 -87.08929 27597 ft 491 kts 206°
2026-04-30 08:04 20.10767 -87.10415 27827 ft 493 kts 206°
2026-04-30 08:05 20.07632 -87.11920 28092 ft 495 kts 206°
2026-04-30 08:05 20.04486 -87.13425 28337 ft 497 kts 206°
2026-04-30 08:05 20.01313 -87.14941 28587 ft 499 kts 206°
2026-04-30 08:05 19.98140 -87.16461 28819 ft 501 kts 206°
2026-04-30 08:06 19.96029 -87.17472 28980 ft 502 kts 206°
2026-04-30 08:06 19.92841 -87.18997 29233 ft 503 kts 206°
2026-04-30 08:06 19.88604 -87.21020 29659 ft 503 kts 206°
2026-04-30 08:06 19.85420 -87.22541 30028 ft 501 kts 206°
2026-04-30 08:07 19.82248 -87.24057 30321 ft 500 kts 206°
2026-04-30 08:07 19.80098 -87.25082 30505 ft 500 kts 206°
2026-04-30 08:07 19.76932 -87.26592 30813 ft 498 kts 206°
2026-04-30 08:07 19.73800 -87.28086 30962 ft 501 kts 206°
2026-04-30 08:08 19.70595 -87.29615 30928 ft 506 kts 206°
2026-04-30 08:08 19.64194 -87.32663 30924 ft 503 kts 206°
2026-04-30 08:09 19.57795 -87.35710 30921 ft 503 kts 206°
2026-04-30 08:09 19.51399 -87.38751 30915 ft 503 kts 206°
2026-04-30 08:10 19.45050 -87.41768 30919 ft 503 kts 206°
2026-04-30 08:10 19.38655 -87.44804 30916 ft 504 kts 206°
2026-04-30 08:11 19.32245 -87.47844 30912 ft 504 kts 206°
2026-04-30 08:11 19.25836 -87.50881 30917 ft 504 kts 206°
2026-04-30 08:12 19.19459 -87.53900 30916 ft 504 kts 206°
2026-04-30 08:12 19.13043 -87.56936 30924 ft 505 kts 206°
2026-04-30 08:13 19.06618 -87.59973 30920 ft 505 kts 206°
2026-04-30 08:13 19.00248 -87.62982 30914 ft 505 kts 206°
2026-04-30 08:14 18.93847 -87.66002 30916 ft 504 kts 206°
2026-04-30 08:14 18.87414 -87.69035 30919 ft 504 kts 206°
2026-04-30 08:15 18.81045 -87.72036 30914 ft 504 kts 206°
2026-04-30 08:15 18.74640 -87.75050 30912 ft 503 kts 206°
2026-04-30 08:16 18.68228 -87.78066 30909 ft 504 kts 205°
2026-04-30 08:16 18.61821 -87.81077 30908 ft 504 kts 205°
2026-04-30 08:17 18.55456 -87.84065 30909 ft 504 kts 205°
2026-04-30 08:17 18.49045 -87.87074 30913 ft 503 kts 205°
2026-04-30 08:18 18.42672 -87.90060 30909 ft 504 kts 205°
2026-04-30 08:18 18.36263 -87.93063 30909 ft 504 kts 205°
2026-04-30 08:19 18.29867 -87.96055 30911 ft 503 kts 205°
2026-04-30 08:19 18.23447 -87.99058 30902 ft 503 kts 205°
2026-04-30 08:20 18.17049 -88.02048 30904 ft 504 kts 205°
2026-04-30 08:20 18.10663 -88.05029 30902 ft 503 kts 205°
2026-04-30 08:21 18.04254 -88.08018 30897 ft 503 kts 205°
2026-04-30 08:21 17.97828 -88.11014 30901 ft 503 kts 205°
2026-04-30 08:22 17.91450 -88.13985 30901 ft 503 kts 205°
2026-04-30 08:22 17.85078 -88.16949 30901 ft 503 kts 205°
2026-04-30 08:23 17.78646 -88.19941 30904 ft 502 kts 205°
2026-04-30 08:23 17.72277 -88.22900 30901 ft 502 kts 204°
2026-04-30 08:24 17.65877 -88.25872 30902 ft 501 kts 204°
2026-04-30 08:24 17.59509 -88.28826 30899 ft 502 kts 204°
2026-04-30 08:25 17.52852 -88.30849 30923 ft 501 kts 181°
2026-04-30 08:25 17.49375 -88.30540 30923 ft 500 kts 169°
2026-04-30 08:25 17.45972 -88.29898 30905 ft 501 kts 167°
2026-04-30 08:26 17.39135 -88.28506 30905 ft 500 kts 168°
2026-04-30 08:26 17.32295 -88.27231 30906 ft 500 kts 168°
2026-04-30 08:27 17.25452 -88.25883 30901 ft 499 kts 168°
2026-04-30 08:27 17.18636 -88.24587 30898 ft 498 kts 168°
2026-04-30 08:28 17.11803 -88.23261 30903 ft 499 kts 168°
2026-04-30 08:28 17.05009 -88.21959 30899 ft 499 kts 168°
2026-04-30 08:29 16.98161 -88.20640 30899 ft 499 kts 168°
2026-04-30 08:29 16.91347 -88.19332 30897 ft 499 kts 168°
2026-04-30 08:30 16.84525 -88.18022 30896 ft 499 kts 168°
2026-04-30 08:30 16.77670 -88.16707 30884 ft 499 kts 168°
2026-04-30 08:31 16.70876 -88.15404 30880 ft 498 kts 168°
2026-04-30 08:31 16.64066 -88.14100 30878 ft 497 kts 169°
2026-04-30 08:32 16.57235 -88.12792 30882 ft 497 kts 169°
2026-04-30 08:32 16.50416 -88.11488 30887 ft 497 kts 169°
2026-04-30 08:33 16.43664 -88.10197 30878 ft 496 kts 169°
2026-04-30 08:33 16.36849 -88.08895 30878 ft 496 kts 169°
2026-04-30 08:34 16.30070 -88.07601 30878 ft 495 kts 169°
2026-04-30 08:34 16.23308 -88.06312 30875 ft 495 kts 169°
2026-04-30 08:35 16.16518 -88.05017 30879 ft 495 kts 169°
2026-04-30 08:35 16.09758 -88.03730 30876 ft 494 kts 169°
2026-04-30 08:36 16.03004 -88.02444 30874 ft 494 kts 169°
2026-04-30 08:36 15.96255 -88.01160 30877 ft 494 kts 169°
2026-04-30 08:37 15.89468 -87.99870 30879 ft 493 kts 168°
2026-04-30 08:37 15.82727 -87.98590 30884 ft 492 kts 168°
2026-04-30 08:38 15.76007 -87.97314 30883 ft 493 kts 168°
2026-04-30 08:38 15.69258 -87.96033 30879 ft 493 kts 168°
2026-04-30 08:39 15.62504 -87.94754 30882 ft 493 kts 168°
2026-04-30 08:39 15.55758 -87.93475 30879 ft 493 kts 168°
2026-04-30 08:40 15.49013 -87.92199 30880 ft 493 kts 168°
2026-04-30 08:40 15.42286 -87.90911 30877 ft 492 kts 167°
2026-04-30 08:41 15.35525 -87.89565 30884 ft 492 kts 167°
2026-04-30 08:41 15.28790 -87.88260 30885 ft 492 kts 167°
2026-04-30 08:42 15.22059 -87.86934 30897 ft 492 kts 167°
2026-04-30 08:42 15.15366 -87.85631 30924 ft 492 kts 167°
2026-04-30 08:43 15.08608 -87.84307 30952 ft 491 kts 167°
2026-04-30 08:43 15.01911 -87.83001 30957 ft 491 kts 167°
2026-04-30 08:43 14.98637 -87.82364 30709 ft 475 kts 167°
2026-04-30 08:44 14.95799 -87.81810 30298 ft 481 kts 167°
2026-04-30 08:44 14.92576 -87.81176 29806 ft 486 kts 167°
2026-04-30 08:44 14.89243 -87.80527 29257 ft 486 kts 167°
2026-04-30 08:44 14.85908 -87.79880 28717 ft 488 kts 167°
2026-04-30 08:45 14.82580 -87.79232 28195 ft 490 kts 167°
2026-04-30 08:45 14.79213 -87.78574 27670 ft 489 kts 166°
2026-04-30 08:45 14.75935 -87.77937 27163 ft 473 kts 166°
2026-04-30 08:45 14.72730 -87.77316 26648 ft 458 kts 166°
2026-04-30 08:46 14.69646 -87.76716 26160 ft 445 kts 166°
2026-04-30 08:46 14.66648 -87.76130 25675 ft 434 kts 166°
2026-04-30 08:46 14.63715 -87.75558 25202 ft 426 kts 166°
2026-04-30 08:46 14.60818 -87.74995 24729 ft 424 kts 166°
2026-04-30 08:47 14.57901 -87.74427 24266 ft 423 kts 165°
2026-04-30 08:47 14.55012 -87.73865 23806 ft 421 kts 165°
2026-04-30 08:47 14.52142 -87.73309 23307 ft 419 kts 165°
2026-04-30 08:47 14.49296 -87.72756 22770 ft 415 kts 166°
2026-04-30 08:48 14.46492 -87.72211 22246 ft 411 kts 166°
2026-04-30 08:48 14.43701 -87.71669 21722 ft 407 kts 166°
2026-04-30 08:48 14.40923 -87.71128 21214 ft 403 kts 166°
2026-04-30 08:48 14.38181 -87.70597 20706 ft 400 kts 166°
2026-04-30 08:49 14.35441 -87.70066 20211 ft 397 kts 166°
2026-04-30 08:49 14.32742 -87.69541 19692 ft 394 kts 166°
2026-04-30 08:49 14.30042 -87.69017 19082 ft 391 kts 167°
2026-04-30 08:49 14.27397 -87.68505 18483 ft 386 kts 167°
2026-04-30 08:50 14.24776 -87.67998 17827 ft 382 kts 167°
2026-04-30 08:50 14.22172 -87.67493 17155 ft 377 kts 167°
2026-04-30 08:50 14.19621 -87.66998 16497 ft 372 kts 167°
2026-04-30 08:50 14.17090 -87.66509 15848 ft 366 kts 167°
2026-04-30 08:51 14.14616 -87.66029 15218 ft 361 kts 167°
2026-04-30 08:51 14.12157 -87.65552 14600 ft 356 kts 167°
2026-04-30 08:51 14.10553 -87.65241 14200 ft 353 kts 167°
2026-04-30 08:51 14.07353 -87.64624 13331 ft 346 kts 167°
2026-04-30 08:52 14.05011 -87.64174 12657 ft 342 kts 168°
2026-04-30 08:52 14.02687 -87.63728 11991 ft 337 kts 168°
2026-04-30 08:52 14.01157 -87.63435 11557 ft 334 kts 168°
2026-04-30 08:52 13.98869 -87.62998 11021 ft 327 kts 168°
2026-04-30 08:53 13.96699 -87.62585 10991 ft 322 kts 168°
2026-04-30 08:53 13.94465 -87.62153 10990 ft 323 kts 167°
2026-04-30 08:53 13.92428 -87.61200 11005 ft 324 kts 140°
2026-04-30 08:53 13.90924 -87.59555 10928 ft 307 kts 127°
2026-04-30 08:54 13.89711 -87.57805 10806 ft 290 kts 124°
2026-04-30 08:54 13.88633 -87.56148 10631 ft 275 kts 123°
2026-04-30 08:54 13.87602 -87.54534 10394 ft 266 kts 123°
2026-04-30 08:54 13.86596 -87.52942 10080 ft 260 kts 122°
2026-04-30 08:55 13.85631 -87.51410 9747 ft 255 kts 123°
2026-04-30 08:55 13.84690 -87.49882 9393 ft 250 kts 119°
2026-04-30 08:55 13.83900 -87.48303 9047 ft 245 kts 115°
2026-04-30 08:55 13.83196 -87.46760 9016 ft 232 kts 115°
2026-04-30 08:56 13.82515 -87.45261 9225 ft 231 kts 115°
2026-04-30 08:56 13.81825 -87.43715 9134 ft 236 kts 112°
2026-04-30 08:56 13.81346 -87.42141 8985 ft 235 kts 104°
2026-04-30 08:56 13.80955 -87.40507 8868 ft 233 kts 103°
2026-04-30 08:57 13.80568 -87.38878 8743 ft 233 kts 103°
2026-04-30 08:57 13.80181 -87.37256 8620 ft 234 kts 103°
2026-04-30 08:57 13.79800 -87.35638 8501 ft 232 kts 101°
2026-04-30 08:57 13.79942 -87.34003 8337 ft 233 kts 70°
2026-04-30 08:58 13.80706 -87.32540 8174 ft 233 kts 59°
2026-04-30 08:58 13.81821 -87.31349 7946 ft 234 kts 33°
2026-04-30 08:58 13.83288 -87.30682 7630 ft 227 kts 21°
2026-04-30 08:58 13.84726 -87.30138 7306 ft 216 kts 22°
2026-04-30 08:59 13.86083 -87.29525 6980 ft 208 kts 27°
2026-04-30 08:59 13.87326 -87.28888 6893 ft 192 kts 27°
2026-04-30 08:59 13.88482 -87.28333 6895 ft 180 kts 25°
2026-04-30 08:59 13.89627 -87.27801 6896 ft 175 kts 25°
2026-04-30 09:00 13.90726 -87.27281 6894 ft 177 kts 27°
2026-04-30 09:00 13.91756 -87.26592 6902 ft 174 kts 39°
2026-04-30 09:00 13.92708 -87.25822 6822 ft 175 kts 36°
2026-04-30 09:00 13.93770 -87.25245 6691 ft 175 kts 19°
2026-04-30 09:01 13.94956 -87.24992 6544 ft 173 kts 10°
2026-04-30 09:01 13.96136 -87.24804 6359 ft 172 kts 10°
2026-04-30 09:01 13.97316 -87.24595 6038 ft 171 kts 12°
2026-04-30 09:01 13.98469 -87.24343 5650 ft 170 kts 14°
2026-04-30 09:02 14.00689 -87.23630 4880 ft 160 kts 27°
2026-04-30 09:02 14.01706 -87.23235 4562 ft 153 kts 18°
2026-04-30 09:02 14.02723 -87.22903 4223 ft 154 kts 18°
2026-04-30 09:03 14.03738 -87.22553 3827 ft 155 kts 17°
2026-04-30 09:03 14.04745 -87.22188 3460 ft 150 kts 18°
2026-04-30 09:03 14.05686 -87.21857 3292 ft 129 kts 18°
2026-04-30 09:03 14.06295 -87.21647 3288 ft 43 kts 21°
2026-04-30 09:04 14.06460 -87.21586 3288 ft 16 kts 15°
2026-04-30 09:04 14.06538 -87.21562 3289 ft 8 kts 16°
2026-04-30 09:04 14.06577 -87.21563 3289 ft 4 kts 333°
2026-04-30 09:04 14.06588 -87.21575 3289 ft 1 kts 299°
2026-04-30 09:05 14.06595 -87.21601 3289 ft 5 kts 275°
2026-04-30 09:05 14.06566 -87.21640 3289 ft 10 kts 200°
2026-04-30 09:05 14.06485 -87.21669 3289 ft 15 kts 200°
2026-04-30 09:05 14.06388 -87.21702 3289 ft 15 kts 199°
2026-04-30 09:06 14.06292 -87.21736 3289 ft 14 kts 199°
2026-04-30 09:06 14.06220 -87.21762 3289 ft 9 kts 199°
2026-04-30 09:06 14.06178 -87.21775 3289 ft 4 kts 195°
2026-04-30 09:06 14.06151 -87.21782 3289 ft 3 kts 195°
2026-04-30 09:07 14.06126 -87.21792 3289 ft 5 kts 200°
2026-04-30 09:07 14.06093 -87.21812 3289 ft 5 kts 239°
2026-04-30 09:07 14.06094 -87.21844 3289 ft 4 kts 289°
2026-04-30 09:07 14.06102 -87.21866 3290 ft 0 kts 290°
2026-04-30 09:08 14.06102 -87.21868 3290 ft 1 kts 290°